登录
首页 » Python » 代码《Python 3反爬虫原理与绕过实战》

代码《Python 3反爬虫原理与绕过实战》

于 2021-03-25 发布
0 259
下载积分: 1 下载次数: 1

代码说明:

说明:  《Python3反爬虫原理与绕过实战》随书源码,不错的资源哦("Python 3 anti crawler principle and bypass the actual combat" with the book source code, a good resource Oh)

文件列表:

antispider-master, 0 , 2019-10-10
antispider-master\.DS_Store, 6148 , 2019-10-10
antispider-master\.idea, 0 , 2019-10-10
antispider-master\.idea\antispider.iml, 453 , 2019-10-10
antispider-master\.idea\misc.xml, 203 , 2019-10-10
antispider-master\.idea\modules.xml, 272 , 2019-10-10
antispider-master\.idea\vcs.xml, 180 , 2019-10-10
antispider-master\.idea\workspace.xml, 49913 , 2019-10-10
antispider-master\02, 0 , 2019-10-10
antispider-master\02\2-3, 0 , 2019-10-10
antispider-master\02\2-3\__init__.py, 0 , 2019-10-10
antispider-master\02\2-3\websocket.py, 1253 , 2019-10-10
antispider-master\04, 0 , 2019-10-10
antispider-master\04\4-1, 0 , 2019-10-10
antispider-master\04\4-1\4-1-1-one.py, 512 , 2019-10-10
antispider-master\04\4-1\4-1-1-two.py, 638 , 2019-10-10
antispider-master\04\4-1\__init__.py, 0 , 2019-10-10
antispider-master\04\4-2, 0 , 2019-10-10
antispider-master\04\4-2\4-2-1-one.py, 549 , 2019-10-10
antispider-master\04\4-2\4-2-1-two.py, 618 , 2019-10-10
antispider-master\04\4-2\__init__.py, 0 , 2019-10-10
antispider-master\04\4-2\fet.js, 983 , 2019-10-10
antispider-master\04\4-3, 0 , 2019-10-10
antispider-master\04\4-3\4-3-1-one.py, 864 , 2019-10-10
antispider-master\04\4-3\4-3-2, 0 , 2019-10-10
antispider-master\04\4-3\4-3-2\4-3-2-one.py, 3535 , 2019-10-10
antispider-master\04\4-3\4-3-2\__init__.py, 0 , 2019-10-10
antispider-master\04\4-3\4-3-2\static, 0 , 2019-10-10
antispider-master\04\4-3\4-3-2\static\md5.js, 8827 , 2019-10-10
antispider-master\04\4-3\4-3-2\static\sign.js, 960 , 2019-10-10
antispider-master\04\4-3\4-3-2\template, 0 , 2019-10-10
antispider-master\04\4-3\4-3-2\template\index.html, 4493 , 2019-10-10
antispider-master\04\4-3\__init__.py, 0 , 2019-10-10
antispider-master\04\4-3\sign.js, 1087 , 2019-10-10
antispider-master\04\4-4, 0 , 2019-10-10
antispider-master\04\4-4\__init__.py, 0 , 2019-10-10
antispider-master\04\4-4\client.py, 1544 , 2019-10-10
antispider-master\04\4-4\server.py, 1855 , 2019-10-10
antispider-master\04\4-5, 0 , 2019-10-10
antispider-master\04\4-5\__init__.py, 0 , 2019-10-10
antispider-master\04\4-5\client.py, 2131 , 2019-10-10
antispider-master\04\4-5\server.py, 3010 , 2019-10-10
antispider-master\04\__init__.py, 0 , 2019-10-10
antispider-master\05, 0 , 2019-10-10
antispider-master\05\5-2, 0 , 2019-10-10
antispider-master\05\5-2\5-2-1-one.py, 180 , 2019-10-10
antispider-master\05\5-2\5-2-1-three.py, 471 , 2019-10-10
antispider-master\05\5-2\5-2-1-two.py, 435 , 2019-10-10
antispider-master\05\5-2\5-2-2-one.py, 419 , 2019-10-10
antispider-master\05\5-2\5-2-2-two.py, 633 , 2019-10-10
antispider-master\05\5-2\5-2-3-one.py, 695 , 2019-10-10
antispider-master\05\5-2\5-2-5-one.py, 291 , 2019-10-10
antispider-master\05\5-2\5-2-5-two.py, 545 , 2019-10-10
antispider-master\05\5-2\__init__.py, 0 , 2019-10-10
antispider-master\05\5-2\ituring.png, 201153 , 2019-10-10
antispider-master\06, 0 , 2019-10-10
antispider-master\06\6-1, 0 , 2019-10-10
antispider-master\06\6-1\6-1-1-one.py, 315 , 2019-10-10
antispider-master\06\6-1\6-1-1-two.py, 767 , 2019-10-10
antispider-master\06\6-1\__init__.py, 0 , 2019-10-10
antispider-master\06\6-2, 0 , 2019-10-10
antispider-master\06\6-2\6-2-1-one.py, 1429 , 2019-10-10
antispider-master\06\6-2\__init__.py, 0 , 2019-10-10
antispider-master\06\6-3, 0 , 2019-10-10
antispider-master\06\6-3\6-3-1-one.py, 320 , 2019-10-10
antispider-master\06\6-3\6-3-1-two.py, 460 , 2019-10-10
antispider-master\06\6-3\6-3-3-one.py, 855 , 2019-10-10
antispider-master\06\6-3\__init__.py, 0 , 2019-10-10
antispider-master\06\6-4, 0 , 2019-10-10
antispider-master\06\6-4\6-4-2-one.py, 151 , 2019-10-10
antispider-master\06\6-4\6-4-2-two.py, 2543 , 2019-10-10
antispider-master\06\6-4\__init__.py, 0 , 2019-10-10
antispider-master\06\6-4\movie.woff, 2076 , 2019-10-10
antispider-master\06\6-4\target.woff, 2076 , 2019-10-10
antispider-master\06\6-5, 0 , 2019-10-10
antispider-master\06\6-5\6-5-1-one.py, 1223 , 2019-10-10
antispider-master\06\6-5\6-5-2-one.py, 82 , 2019-10-10
antispider-master\06\6-5\__init__.py, 0 , 2019-10-10
antispider-master\06\6-5\ganrao.png, 4594 , 2019-10-10
antispider-master\06\6-5\total.png, 2588 , 2019-10-10
antispider-master\07, 0 , 2019-10-10
antispider-master\07\7-1, 0 , 2019-10-10
antispider-master\07\7-1\7-1-1-one.py, 389 , 2019-10-10
antispider-master\07\7-1\7-1-1-two.py, 479 , 2019-10-10
antispider-master\07\7-1\7-1-3-one.py, 594 , 2019-10-10
antispider-master\07\7-1\__init__.py, 0 , 2019-10-10
antispider-master\07\7-1\webdriver.png, 52296 , 2019-10-10
antispider-master\07\7-2, 0 , 2019-10-10
antispider-master\07\7-2\7-2-1-one.py, 384 , 2019-10-10
antispider-master\07\7-2\__init__.py, 0 , 2019-10-10
antispider-master\07\7-2\browser.png, 111363 , 2019-10-10
antispider-master\07\7-3, 0 , 2019-10-10
antispider-master\07\7-3\7-3-1-one.py, 133 , 2019-10-10
antispider-master\07\7-3\7-3-1-two.py, 163 , 2019-10-10
antispider-master\07\7-3\7-3-2-one.py, 128 , 2019-10-10
antispider-master\07\7-3\__init__.py, 0 , 2019-10-10
antispider-master\07\7-4, 0 , 2019-10-10
antispider-master\07\7-4\7-4-1-one.py, 480 , 2019-10-10
antispider-master\07\7-4\__init__.py, 0 , 2019-10-10
antispider-master\07\7-4\hidden.py, 1790 , 2019-10-10

下载说明:请别用迅雷下载,失败请重下,重下不扣分!

发表评论

0 个回复

  • 拟合优度卡方检验
    说明:  对卡方检验进行拟合,计算理论分布,计算理论概率,作出检验(Fit chi square test, calculate theoretical distribution, calculate theoretical probability and make test)
    2020-04-10 11:12:46下载
    积分:1
  • dcb2098067ee907b185a235b0017132c_haolizi
    说明:  本插件适合ecshop所有版本。下载解压后上传到网站根目录即可使用,不会覆盖任何文件。支付宝免签约,及时到账。(This plug-in is suitable for all versions of ecshop. After downloading and decompressing, it can be uploaded to the root directory of the website and used without overwriting any files. Alipay signed the contract free and arrived in time.)
    2019-02-05 23:29:33下载
    积分:1
  • caffe架构相关资料 caffe-windows
    说明:  caffe架构相关资料 介绍在window环境下的相关开发(Caffe architecture related materials introduced in the window environment of the relevant development)
    2020-06-20 03:40:01下载
    积分:1
  • 遥感提取特征点
    基于Moravec算子的特征点提取该算子是通过逐像元量测与其邻元的灰度差,搜索相邻像元之间具有高反差的点(Feature Point Extraction Based on Moravec Operator)
    2018-12-05 21:27:14下载
    积分:1
  • ahb_interface
    AHB BUS, Master Slave Arbiter -- example(AHB BUS, Master Slave Arbiter)
    2020-11-23 10:39:35下载
    积分:1
  • 改进lzw数据压缩实现
    matlab实现LZW无损压缩 以及matlab实现LZW无损压缩的改进,适合相关领域的人使用,亲测可用(LZW lossless compression implemented by MATLAB And MATLAB to achieve LZW lossless compression improvements, suitable for people in related fields, pro test available)
    2020-07-01 10:00:02下载
    积分:1
  • python爬虫抓站的一些技巧总结
    说明:  用python爬虫抓站的实用技巧,学习python爬虫抓站的实用知识(Practical Skills of Python Crawler Grab Station)
    2019-03-18 09:26:51下载
    积分:1
  • ADE7878
    关于ADE7878的SPI时序读写程序,以及基础的配置过程,可做参考(About the the ADE7878 the SPI timing of read and write procedures, and basic configuration process, do reference)
    2012-11-29 15:05:55下载
    积分:1
  • TMS320VC5509A芯片支持库
    tms320vc5509a chip support library
    2022-05-16 06:28:58下载
    积分:1
  • 00001
    没有(my)
    2019-02-12 03:44:14下载
    积分:1
  • 696516资源总数
  • 106914会员总数
  • 0今日下载